Weather History for Carlsbad, CA

Change the Weather History Date:

Tuesday, July 30, 2013

  Actual Average Record
Temperature  
Mean Temperature 68 °F -  
Max Temperature 72 °F 72 °F 79 °F (2014)
Min Temperature 64 °F 61 °F 59 °F (1999)
Cooling Degree Days 2    
Growing Degree Days 18 (Base 50)    
Moisture  
Dew Point 57 °F    
Average Humidity 71    
Maximum Humidity 78    
Minimum Humidity 61    
Precipitation  
Precipitation 0.00 in - - ()
Sea Level Pressure  
Sea Level Pressure 30.07 in    
Wind  
Wind Speed 3 mph (West)    
Max Wind Speed 12 mph    
Max Gust Speed 17 mph    
Visibility 10 miles    
Events      
Averages and records for this station are not official NWS values.
T = Trace of Precipitation, MM = Missing Value Source: NWS Daily Summary

Daily Weather History Graph

Daily Weather History Graph

Search for Another Location

Airport:

Trip Planner

Search our weather history database for the weather conditions in past years. The results will help you decide how hot, cold, wet, or windy it might be!

Date:

Astronomy

Jul. 30, 2013 Rise Set
Actual Time 6:01 AM PDT 7:49 PM PDT
Civil Twilight 5:33 AM PDT 8:16 PM PDT
Nautical Twilight 5:01 AM PDT 8:49 PM PDT
Astronomical Twilight 4:26 AM PDT 9:23 PM PDT
Moon 12:19 AM PDT (7/30) 2:14 PM PDT (7/30)
Length of Visible Light 14h 42m
Length of Day
13h 48m
Last Quarter, 40% of the Moon is Illuminated
Jul 30
Last Quarter
Aug 6
New
Aug 14
First Quarter
Aug 20
Full
Aug 28
Last Quarter

Hourly Weather History & Observations

Time (PDT) Temp. Dew Point Humidity Pressure Visibility Wind Dir Wind Speed Gust Speed Precip Events Conditions
12:53 AM 64.9 °F 55.9 °F 73% 30.03 in 10.0 mi Calm Calm - N/A   Clear
1:53 AM 64.0 °F 57.0 °F 78% 30.04 in 10.0 mi Calm Calm - N/A   Clear
2:21 AM 64.4 °F 57.2 °F 77% 30.05 in 10.0 mi Calm Calm - N/A   Mostly Cloudy
2:53 AM 64.0 °F 57.0 °F 78% 30.05 in 10.0 mi Calm Calm - N/A   Overcast
3:53 AM 64.9 °F 57.0 °F 75% 30.06 in 10.0 mi Calm Calm - N/A   Overcast
4:53 AM 64.9 °F 57.0 °F 75% 30.06 in 10.0 mi Calm Calm - N/A   Overcast
5:53 AM 64.9 °F 57.0 °F 75% 30.07 in 10.0 mi Calm Calm - N/A   Overcast
6:53 AM 64.9 °F 57.0 °F 75% 30.08 in 10.0 mi Calm Calm - N/A   Overcast
7:53 AM 66.0 °F 57.0 °F 73% 30.09 in 10.0 mi NNW 3.5 mph - N/A   Overcast
8:53 AM 66.9 °F 57.0 °F 70% 30.10 in 10.0 mi Calm Calm - N/A   Overcast
9:22 AM 66.2 °F 57.2 °F 73% 30.11 in 10.0 mi Calm Calm - N/A   Overcast
9:53 AM 69.1 °F 57.0 °F 65% 30.10 in 10.0 mi West 3.5 mph - N/A   Scattered Clouds
10:53 AM 69.1 °F 57.0 °F 65% 30.10 in 10.0 mi West 9.2 mph - N/A   Clear
11:53 AM 69.1 °F 57.0 °F 65% 30.09 in 10.0 mi WSW 8.1 mph - N/A   Clear
12:53 PM 70.0 °F 57.0 °F 63% 30.09 in 10.0 mi WSW 10.4 mph 17.3 mph N/A   Clear
1:53 PM 71.1 °F 57.9 °F 63% 30.08 in 10.0 mi West 8.1 mph - N/A   Clear
2:53 PM 71.1 °F 57.0 °F 61% 30.07 in 10.0 mi WSW 11.5 mph - N/A   Clear
3:53 PM 70.0 °F 57.0 °F 63% 30.06 in 10.0 mi West 9.2 mph - N/A   Clear
4:53 PM 70.0 °F 57.0 °F 63% 30.05 in 10.0 mi West 8.1 mph - N/A   Partly Cloudy
5:53 PM 68.0 °F 57.0 °F 68% 30.05 in 10.0 mi West 8.1 mph - N/A   Partly Cloudy
6:53 PM 66.9 °F 57.0 °F 70% 30.05 in 10.0 mi WSW 9.2 mph - N/A   Scattered Clouds
7:00 PM 66.2 °F 57.2 °F 73% 30.06 in 10.0 mi WSW 9.2 mph - N/A   Mostly Cloudy
7:29 PM 66.2 °F 57.2 °F 73% 30.06 in 10.0 mi WSW 5.8 mph - N/A   Overcast
7:53 PM 66.9 °F 57.9 °F 73% 30.06 in 10.0 mi Variable 4.6 mph - N/A   Overcast
8:53 PM 66.0 °F 57.9 °F 75% 30.08 in 10.0 mi Variable 3.5 mph - N/A   Overcast
9:53 PM 66.0 °F 57.9 °F 75% 30.09 in 10.0 mi West 4.6 mph - N/A   Overcast
10:53 PM 66.0 °F 57.0 °F 73% 30.09 in 10.0 mi Calm Calm - N/A   Overcast